Project,Study,Ord_Occ,Event_Num,Cast_ID,Date_Time_UTC,Date_Time_PST,Lat_Dec,Lon_Dec,Sta_ID,Line,Sta,Depth,Pressure,PrQ,Temp1,Temp1Q,Temp2,Temp2Q,TempAve,Salt1,Salt1Q,Salt1_Corr,Salt2,Salt2Q,Salt2_Corr,SaltAve_Corr,Ox1,Ox1Q,Ox1_CruiseCorr,Ox1_StaCorr,Ox2,Ox2Q,Ox2_CruiseCorr,Ox2_StaCorr,OxAve_StaCorr,Ox1uM,Ox1uM_CruiseCorr,Ox1uM_StaCorr,Ox2uM,Ox2uM_CruiseCorr,Ox2uM_StaCorr,OxAveuM_StaCorr,FluorV,FluorQ,EstChl_CruiseCorr,EstChl_StaCorr,ISUSV,ISUSQ,EstNO3_CruiseCorr,EstNO3_StaCorr,SigThetaTS1,SigThetaTS1Q,SigThetaTS2,SigThetaTS2Q,BAT,XMiss,TransQ,pH,pHQ,SPAR,SPARQ,PAR,PARQ,PoT1,PoT2,DynHt,SVA,OxSat1,OxSat2,BTL_Depth,BTL_Temp,SaltB,OxB,OxBuM,Chl-a,Phaeo,NO3,NO2,NH4,PO4,SIL
CalCOFI,2105SH,012,,2105_012d,06-May-2021 14:18:54,06-May-2021 06:18:54,30.84635,-121.58891,093.3 090.0,093.3,090.0,4.000,4.028,,14.9422,,14.9431,,14.9427,33.3106,,33.3118,33.3105,,33.3124,33.3121,5.7072,,6.0347,6.0245,5.7643,,6.0301,6.0184,6.0215,248.745,262.5368,261.8505,251.234,273.7738,261.6891,261.7698,0.1188,,0.6492,0.4039,2.6263,,1.6536,,24.6824,,24.6821,,,,,,,,,,,14.9416,14.9425,0.0069,325.136,99.108,100.101,3,14.964,33.3087,6.016,262.20,0.417,0.103,0.21,0.00,0.00,0.33,1.71
CalCOFI,2105SH,012,,2105_012d,06-May-2021 14:19:05,06-May-2021 06:19:05,30.84634,-121.58890,093.3 090.0,093.3,090.0,5.000,5.035,,14.9410,,14.9424,,14.9417,33.3107,,33.3119,33.3105,,33.3124,33.3122,5.7139,,6.0417,6.0315,5.7644,,6.0302,6.0185,6.0250,249.036,262.8410,262.1575,251.238,274.0881,261.6933,261.9254,0.1171,,0.6372,0.3961,2.6258,,1.6536,,24.6827,,24.6823,,,,,,,,,,,14.9403,14.9416,0.0133,325.129,99.222,100.101,,,,,,,,,,,,
CalCOFI,2105SH,012,,2105_012d,06-May-2021 14:19:08,06-May-2021 06:19:08,30.84634,-121.58888,093.3 090.0,093.3,090.0,6.000,6.042,,14.9431,,14.9426,,14.9429,33.3103,,33.3115,33.3107,,33.3126,33.3121,5.7013,,6.0285,6.0183,5.7653,,6.0311,6.0194,6.0189,248.489,262.2692,261.5805,251.274,273.4973,261.7309,261.6557,0.1208,,0.6634,0.4131,2.6258,,1.6536,,24.6820,,24.6824,,,,,,,,,,,14.9422,14.9417,0.0167,325.227,99.007,100.117,,,,,,,,,,,,
CalCOFI,2105SH,012,,2105_012d,06-May-2021 14:19:10,06-May-2021 06:19:10,30.84634,-121.58888,093.3 090.0,093.3,090.0,7.000,7.049,,14.9433,,14.9440,,14.9437,33.3108,,33.3120,33.3106,,33.3125,33.3123,5.6859,,6.0124,6.0021,5.7617,,6.0274,6.0156,6.0089,247.814,261.5636,260.8685,251.122,272.7683,261.5721,261.2203,0.1184,,0.6464,0.4021,2.6258,,1.6536,,24.6824,,24.6821,,,,,,,,,,,14.9423,14.9429,0.0199,325.226,98.739,100.058,,,,,,,,,,,,
CalCOFI,2105SH,012,,2105_012d,06-May-2021 14:19:12,06-May-2021 06:19:12,30.84634,-121.58888,093.3 090.0,093.3,090.0,8.000,8.056,,14.9438,,14.9443,,14.9441,33.3105,,33.3117,33.3106,,33.3125,33.3121,5.6813,,6.0076,5.9972,5.7662,,6.0320,6.0203,6.0088,247.614,261.3545,260.6575,251.316,272.5523,261.7748,261.2162,0.1193,,0.6528,0.4062,2.6258,,1.6536,,24.6821,,24.6821,,,,,,,,,,,14.9426,14.9431,0.0232,325.281,98.661,100.136,,,,,,,,,,,,
CalCOFI,2105SH,012,,2105_012d,06-May-2021 14:19:14,06-May-2021 06:19:14,30.84634,-121.58888,093.3 090.0,093.3,090.0,9.000,9.063,,14.9435,,14.9427,,14.9431,33.3110,,33.3122,33.3110,,33.3129,33.3126,5.6651,,5.9907,5.9802,5.7656,,6.0314,6.0197,6.0000,246.907,260.6154,259.9117,251.290,271.7887,261.7476,260.8297,0.1207,,0.6627,0.4127,2.6256,,1.6536,,24.6825,,24.6827,,,,,,,,,,,14.9421,14.9413,0.0265,325.270,98.378,100.123,,,,,,,,,,,,
CalCOFI,2105SH,012,,2105_012d,06-May-2021 14:19:16,06-May-2021 06:19:16,30.84633,-121.58888,093.3 090.0,093.3,090.0,10.000,10.069,,14.9339,,14.9344,,14.9342,33.3123,,33.3135,33.3119,,33.3138,33.3137,5.7023,,6.0296,6.0193,5.7613,,6.0270,6.0152,6.0173,248.531,262.3131,261.6248,251.100,273.5427,261.5491,261.5870,0.1257,,0.6980,0.4357,2.6256,,1.6536,,24.6856,,24.6852,,,,,,,,,,,14.9324,14.9329,0.0298,325.003,99.007,100.032,,,,,,,,,,,,
CalCOFI,2105SH,012,,2105_012d,06-May-2021 14:19:17,06-May-2021 06:19:17,30.84634,-121.58888,093.3 090.0,093.3,090.0,11.000,11.076,,14.9304,,14.9302,,14.9303,33.3126,,33.3138,33.3124,,33.3143,33.3141,5.7185,,6.0465,6.0363,5.7655,,6.0313,6.0196,6.0280,249.234,263.0480,262.3664,251.285,274.3019,261.7424,262.0544,0.1255,,0.6966,0.4348,2.6256,,1.6536,,24.6866,,24.6866,,,,,,,,,,,14.9288,14.9286,0.0330,324.939,99.281,100.098,11,14.975,,,262.46,0.442,0.125,0.15,0.00,0.00,0.31,1.29
CalCOFI,2105SH,012,,2105_012d,06-May-2021 14:19:19,06-May-2021 06:19:19,30.84633,-121.58888,093.3 090.0,093.3,090.0,12.000,12.083,,14.9284,,14.9313,,14.9299,33.3130,,33.3142,33.3122,,33.3141,33.3142,5.7085,,6.0360,6.0258,5.7800,,6.0463,6.0347,6.0303,248.798,262.5922,261.9064,251.916,273.8310,262.4018,262.1541,0.1230,,0.6789,0.4233,2.6256,,1.6536,,24.6874,,24.6862,,,,,,,,,,,14.9267,14.9295,0.0363,324.892,99.104,100.351,,,,,,,,,,,,
CalCOFI,2105SH,012,,2105_012d,06-May-2021 14:19:21,06-May-2021 06:19:21,30.84633,-121.58888,093.3 090.0,093.3,090.0,13.000,13.090,,14.8765,,14.8791,,14.8778,33.3214,,33.3226,33.3186,,33.3205,33.3216,5.7258,,6.0541,6.0440,5.7778,,6.0440,6.0324,6.0382,249.548,263.3763,262.6976,251.817,274.6410,262.2983,262.4980,0.1279,,0.7135,0.4458,2.6255,,1.6536,,24.7052,,24.7024,,,,,,,,,,,14.8745,14.8771,0.0396,323.231,99.306,100.212,,,,,,,,,,,,
CalCOFI,2105SH,012,,2105_012d,06-May-2021 14:19:23,06-May-2021 06:19:23,30.84633,-121.58888,093.3 090.0,093.3,090.0,14.000,14.097,,14.8152,,14.8168,,14.8160,33.3269,,33.3281,33.3239,,33.3258,33.3270,5.7278,,6.0562,6.0461,5.7809,,6.0473,6.0356,6.0409,249.631,263.4630,262.7851,251.945,274.7307,262.4321,262.6086,0.1436,,0.8234,0.5182,2.6255,,1.6536,,24.7226,,24.7200,,,,,,,,,,,14.8132,14.8147,0.0428,321.597,99.222,100.143,,,,,,,,,,,,
CalCOFI,2105SH,012,,2105_012d,06-May-2021 14:19:25,06-May-2021 06:19:25,30.84634,-121.58888,093.3 090.0,093.3,090.0,15.000,15.104,,14.7475,,14.7482,,14.7479,33.3284,,33.3296,33.3259,,33.3278,33.3287,5.7064,,6.0339,6.0236,5.7870,,6.0536,6.0419,6.0328,248.696,262.4856,261.7988,252.210,273.7209,262.7090,262.2539,0.1455,,0.8367,0.5270,2.6253,,1.6536,,24.7384,,24.7363,,,,,,,,,,,14.7453,14.7460,0.0460,320.128,98.720,100.114,,,,,,,,,,,,
CalCOFI,2105SH,012,,2105_012d,06-May-2021 14:19:27,06-May-2021 06:19:27,30.84633,-121.58888,093.3 090.0,093.3,090.0,16.000,16.111,,14.7247,,14.7251,,14.7249,33.3283,,33.3295,33.3260,,33.3279,33.3287,5.7196,,6.0477,6.0375,5.7949,,6.0618,6.0501,6.0438,249.270,263.0857,262.4043,252.550,274.3408,263.0643,262.7343,0.1698,,1.0043,0.6390,2.6251,,1.6536,,24.7432,,24.7413,,,,,,,,,,,14.7223,14.7228,0.0493,319.701,98.902,100.203,,,,,,,,,,,,
CalCOFI,2105SH,012,,2105_012d,06-May-2021 14:19:29,06-May-2021 06:19:29,30.84632,-121.58887,093.3 090.0,093.3,090.0,17.000,17.118,,14.6741,,14.6752,,14.6747,33.3296,,33.3308,33.3262,,33.3281,33.3295,5.7066,,6.0341,6.0238,5.7944,,6.0612,6.0496,6.0367,248.701,262.4908,261.8041,252.527,273.7263,263.0402,262.4222,0.1498,,0.8665,0.5468,2.6247,,1.6536,,24.7551,,24.7522,,,,,,,,,,,14.6716,14.6727,0.0525,318.598,98.579,100.095,,,,,,,,,,,,
CalCOFI,2105SH,012,,2105_012d,06-May-2021 14:19:31,06-May-2021 06:19:31,30.84632,-121.58886,093.3 090.0,093.3,090.0,18.000,18.125,,14.6374,,14.6376,,14.6375,33.3291,,33.3303,33.3274,,33.3293,33.3298,5.7104,,6.0380,6.0278,5.7959,,6.0628,6.0512,6.0395,248.863,262.6602,261.9750,252.590,273.9012,263.1060,262.5405,0.1545,,0.8991,0.5685,2.6241,,1.6536,,24.7626,,24.7611,,,,,,,,,,,14.6347,14.6350,0.0557,317.912,98.571,100.046,,,,,,,,,,,,
CalCOFI,2105SH,012,,2105_012d,06-May-2021 14:19:32,06-May-2021 06:19:32,30.84632,-121.58886,093.3 090.0,093.3,090.0,19.000,19.132,,14.6330,,14.6333,,14.6332,33.3291,,33.3303,33.3277,,33.3296,33.3300,5.7522,,6.0818,6.0718,5.7899,,6.0566,6.0450,6.0584,250.683,264.5628,263.8948,252.329,275.8668,262.8333,263.3641,0.1551,,0.9032,0.5712,2.6235,,1.6536,,24.7635,,24.7623,,,,,,,,,,,14.6302,14.6305,0.0589,317.851,99.283,99.935,,,,,,,,,,,,
CalCOFI,2105SH,012,,2105_012d,06-May-2021 14:19:34,06-May-2021 06:19:34,30.84633,-121.58886,093.3 090.0,093.3,090.0,20.000,20.139,,14.6274,,14.6284,,14.6279,33.3293,,33.3305,33.3281,,33.3300,33.3303,5.7201,,6.0482,6.0380,5.7939,,6.0607,6.0491,6.0436,249.286,263.1024,262.4212,252.502,274.3581,263.0141,262.7177,0.1718,,1.0179,0.6482,2.6225,,1.6536,,24.7649,,24.7637,,,,,,,,,,,14.6245,14.6255,0.0621,317.750,98.719,99.993,,,,,,,,,,,,
CalCOFI,2105SH,012,,2105_012d,06-May-2021 14:19:37,06-May-2021 06:19:37,30.84634,-121.58886,093.3 090.0,093.3,090.0,21.000,21.146,,14.6229,,14.6235,,14.6232,33.3295,,33.3307,33.3286,,33.3305,33.3306,5.7431,,6.0722,6.0622,5.7894,,6.0561,6.0444,6.0533,250.287,264.1488,263.4771,252.305,275.4392,262.8082,263.1427,0.1543,,0.8977,0.5675,2.6212,,1.6536,,24.7660,,24.7652,,,,,,,,,,,14.6198,14.6204,0.0653,317.672,99.106,99.906,,,,,,,,,,,,
CalCOFI,2105SH,012,,2105_012d,06-May-2021 14:19:38,06-May-2021 06:19:38,30.84634,-121.58886,093.3 090.0,093.3,090.0,22.000,22.153,,14.6215,,14.6219,,14.6217,33.3296,,33.3308,33.3291,,33.3310,33.3309,5.7464,,6.0757,6.0657,5.7849,,6.0514,6.0398,6.0528,250.431,264.2994,263.6290,252.108,275.5947,262.6024,263.1157,0.1759,,1.0459,0.6671,2.6204,,1.6536,,24.7664,,24.7659,,,,,,,,,,,14.6183,14.6187,0.0685,317.664,99.161,99.825,,,,,,,,,,,,
CalCOFI,2105SH,012,,2105_012d,06-May-2021 14:19:40,06-May-2021 06:19:40,30.84634,-121.58886,093.3 090.0,093.3,090.0,23.000,23.161,,14.6198,,14.6206,,14.6202,33.3301,,33.3313,33.3294,,33.3313,33.3313,5.7301,,6.0586,6.0485,5.7938,,6.0606,6.0490,6.0488,249.721,263.5571,262.8801,252.496,274.8279,263.0078,262.9440,0.1589,,0.9294,0.5887,2.6194,,1.6536,,24.7672,,24.7665,,,,,,,,,,,14.6165,14.6172,0.0717,317.620,98.876,99.976,,,,,,,,,,,,
CalCOFI,2105SH,012,,2105_012d,06-May-2021 14:19:42,06-May-2021 06:19:42,30.84634,-121.58886,093.3 090.0,093.3,090.0,24.000,24.168,,14.6172,,14.6185,,14.6179,33.3302,,33.3314,33.3297,,33.3316,33.3315,5.7111,,6.0388,6.0286,5.7829,,6.0493,6.0377,6.0332,248.892,262.6905,262.0056,252.024,273.9326,262.5146,262.2601,0.1695,,1.0022,0.6376,2.6175,,1.6536,,24.7679,,24.7672,,,,,,,,,,,14.6137,14.6149,0.0749,317.580,98.543,99.786,,,,,,,,,,,,
CalCOFI,2105SH,012,,2105_012d,06-May-2021 14:19:44,06-May-2021 06:19:44,30.84634,-121.58886,093.3 090.0,093.3,090.0,25.000,25.175,,14.6079,,14.6090,,14.6085,33.3293,,33.3305,33.3285,,33.3304,33.3305,5.6689,,5.9946,5.9842,5.7547,,6.0201,6.0084,5.9963,247.054,260.7691,260.0668,250.793,271.9475,261.2283,260.6476,0.1585,,0.9267,0.5869,2.6151,,1.6536,,24.7692,,24.7683,,,,,,,,,,,14.6043,14.6053,0.0781,317.486,97.797,99.279,,,,,,,,,,,,
CalCOFI,2105SH,012,,2105_012d,06-May-2021 14:19:45,06-May-2021 06:19:45,30.84632,-121.58886,093.3 090.0,093.3,090.0,26.000,26.182,,14.5855,,14.5846,,14.5851,33.3279,,33.3291,33.3252,,33.3271,33.3281,5.6717,,5.9976,5.9871,5.7506,,6.0159,6.0041,5.9956,247.176,260.8966,260.1955,250.615,272.0793,261.0423,260.6189,0.1501,,0.8686,0.5482,2.6135,,1.6536,,24.7729,,24.7710,,,,,,,,,,,14.5817,14.5807,0.0813,317.157,97.801,99.158,,,,,,,,,,,,
CalCOFI,2105SH,012,,2105_012d,06-May-2021 14:19:47,06-May-2021 06:19:47,30.84632,-121.58886,093.3 090.0,093.3,090.0,27.000,27.189,,14.5185,,14.5192,,14.5189,33.3262,,33.3274,33.3223,,33.3242,33.3258,5.6999,,6.0271,6.0168,5.7610,,6.0266,6.0149,6.0159,248.402,262.1783,261.4887,251.065,273.4034,261.5125,261.5006,0.1696,,1.0029,0.6381,2.6117,,1.6536,,24.7858,,24.7827,,,,,,,,,,,14.5145,14.5152,0.0845,315.955,98.154,99.205,,,,,,,,,,,,
CalCOFI,2105SH,012,,2105_012d,06-May-2021 14:19:49,06-May-2021 06:19:49,30.84634,-121.58886,093.3 090.0,093.3,090.0,28.000,28.196,,14.4770,,14.4769,,14.4770,33.3235,,33.3247,33.3217,,33.3236,33.3242,5.6874,,6.0140,6.0036,5.7632,,6.0289,6.0172,6.0104,247.854,261.6054,260.9107,251.156,272.8115,261.6076,261.2592,0.1672,,0.9865,0.6270,2.6085,,1.6536,,24.7926,,24.7912,,,,,,,,,,,14.4729,14.4728,0.0876,315.340,97.854,99.157,,,,,,,,,,,,
CalCOFI,2105SH,012,,2105_012d,06-May-2021 14:19:52,06-May-2021 06:19:52,30.84634,-121.58886,093.3 090.0,093.3,090.0,29.000,29.203,,14.4489,,14.4497,,14.4493,33.3225,,33.3237,33.3204,,33.3223,33.3230,5.7076,,6.0351,6.0249,5.7554,,6.0208,6.0091,6.0170,248.734,262.5253,261.8389,250.817,273.7619,261.2533,261.5461,0.1519,,0.8811,0.5565,2.6049,,1.6536,,24.7978,,24.7961,,,,,,,,,,,14.4447,14.4454,0.0908,314.870,98.146,98.968,,,,,,,,,,,,
CalCOFI,2105SH,012,,2105_012d,06-May-2021 14:19:53,06-May-2021 06:19:53,30.84634,-121.58886,093.3 090.0,093.3,090.0,30.000,30.210,,14.4306,,14.4305,,14.4306,33.3221,,33.3233,33.3203,,33.3222,33.3228,5.7124,,6.0401,6.0299,5.7664,,6.0322,6.0205,6.0252,248.944,262.7449,262.0605,251.295,273.9887,261.7528,261.9067,0.1523,,0.8839,0.5583,2.6029,,1.6536,,24.8014,,24.8000,,,,,,,,,,,14.4263,14.4262,0.0940,314.558,98.193,99.119,,,,,,,,,,,,
CalCOFI,2105SH,012,,2105_012d,06-May-2021 14:19:55,06-May-2021 06:19:55,30.84634,-121.58886,093.3 090.0,093.3,090.0,31.000,31.217,,14.4229,,14.4228,,14.4229,33.3219,,33.3231,33.3205,,33.3224,33.3228,5.6988,,6.0259,6.0156,5.7543,,6.0197,6.0080,6.0118,248.348,262.1218,261.4318,250.769,273.3450,261.2032,261.3175,0.1669,,0.9844,0.6256,2.6007,,1.6536,,24.8029,,24.8019,,,,,,,,,,,14.4184,14.4183,0.0972,314.446,97.943,98.896,,,,,,,,,,,,
CalCOFI,2105SH,012,,2105_012d,06-May-2021 14:19:56,06-May-2021 06:19:56,30.84634,-121.58886,093.3 090.0,093.3,090.0,32.000,32.224,,14.3910,,14.3943,,14.3927,33.3220,,33.3232,33.3182,,33.3201,33.3217,5.6901,,6.0168,6.0065,5.7506,,6.0159,6.0041,6.0053,247.970,261.7266,261.0330,250.605,272.9368,261.0318,261.0324,0.1564,,0.9122,0.5772,2.5979,,1.6536,,24.8098,,24.8061,,,,,,,,,,,14.3864,14.3897,0.1003,313.819,97.732,98.774,32,13.774,,,263.97,0.556,0.261,1.03,0.076,0.19,0.41,1.73
CalCOFI,2105SH,012,,2105_012d,06-May-2021 14:19:59,06-May-2021 06:19:59,30.84634,-121.58886,093.3 090.0,093.3,090.0,33.000,33.231,,14.1903,,14.1873,,14.1888,33.3163,,33.3175,33.3084,,33.3103,33.3139,5.6887,,6.0153,6.0050,5.7554,,6.0208,6.0091,6.0071,247.896,261.6493,260.9550,250.805,272.8569,261.2408,261.0979,0.1800,,1.0738,0.6860,2.5943,,1.6536,,24.8475,,24.8421,,,,,,,,,,,14.1855,14.1826,0.1035,310.239,97.307,98.438,,,,,,,,,,,,
CalCOFI,2105SH,012,,2105_012d,06-May-2021 14:20:01,06-May-2021 06:20:01,30.84634,-121.58886,093.3 090.0,093.3,090.0,34.000,34.238,,13.8003,,13.7869,,13.7936,33.3272,,33.3284,33.3020,,33.3039,33.3162,5.7674,,6.0976,6.0878,5.8200,,6.0878,6.0762,6.0820,251.306,265.2141,264.5520,253.601,276.5397,264.1625,264.3573,0.1612,,0.9453,0.5993,2.5925,,1.6536,,24.9367,,24.9200,,,,,,,,,,,13.7955,13.7821,0.1066,301.758,97.883,98.733,,,,,,,,,,,,
CalCOFI,2105SH,012,,2105_012d,06-May-2021 14:20:02,06-May-2021 06:20:02,30.84634,-121.58886,093.3 090.0,093.3,090.0,35.000,35.245,,13.6762,,13.6742,,13.6752,33.3217,,33.3229,33.3126,,33.3145,33.3187,5.7784,,6.1092,6.0993,5.8268,,6.0948,6.0833,6.0913,251.781,265.7107,265.0530,253.890,277.0527,264.4645,264.7588,0.1764,,1.0493,0.6694,2.5914,,1.6536,,24.9579,,24.9513,,,,,,,,,,,13.6712,13.6693,0.1096,299.757,97.820,98.628,,,,,,,,,,,,
CalCOFI,2105SH,012,,2105_012d,06-May-2021 14:20:03,06-May-2021 06:20:03,30.84634,-121.58886,093.3 090.0,093.3,090.0,36.000,36.252,,13.6604,,13.6597,,13.6601,33.3207,,33.3219,33.3151,,33.3170,33.3195,5.7579,,6.0877,6.0778,5.8251,,6.0930,6.0815,6.0797,250.886,264.7750,264.1089,253.816,276.0861,264.3872,264.2481,0.1537,,0.8935,0.5648,2.5899,,1.6536,,24.9605,,24.9562,,,,,,,,,,,13.6553,13.6547,0.1126,299.546,97.440,98.573,,,,,,,,,,,,
CalCOFI,2105SH,012,,2105_012d,06-May-2021 14:20:06,06-May-2021 06:20:06,30.84634,-121.58886,093.3 090.0,093.3,090.0,37.000,37.259,,13.6578,,13.6583,,13.6581,33.3216,,33.3228,33.3178,,33.3197,33.3213,5.7541,,6.0837,6.0738,5.8155,,6.0831,6.0716,6.0727,250.718,264.5994,263.9317,253.395,275.9046,263.9472,263.9395,0.1501,,0.8686,0.5482,2.5847,,1.6536,,24.9617,,24.9587,,,,,,,,,,,13.6527,13.6531,0.1156,299.455,97.370,98.408,,,,,,,,,,,,
CalCOFI,2105SH,012,,2105_012d,06-May-2021 14:20:09,06-May-2021 06:20:09,30.84636,-121.58884,093.3 090.0,093.3,090.0,38.000,38.267,,13.6559,,13.6566,,13.6563,33.3233,,33.3245,33.3208,,33.3227,33.3236,5.6503,,5.9752,5.9646,5.6883,,5.9513,5.9394,5.9520,246.199,259.8752,259.1649,247.853,271.0241,258.1561,258.6605,0.1479,,0.8533,0.5380,2.5741,,1.6536,,24.9635,,24.9613,,,,,,,,,,,13.6506,13.6513,0.1186,299.314,95.612,96.255,,,,,,,,,,,,
CalCOFI,2105SH,012,,2105_012d,06-May-2021 14:20:10,06-May-2021 06:20:10,30.84636,-121.58884,093.3 090.0,093.3,090.0,39.000,39.274,,13.6431,,13.6425,,13.6428,33.3266,,33.3278,33.3222,,33.3241,33.3260,5.5679,,5.8890,5.8780,5.6377,,5.8989,5.8868,5.8824,242.604,256.1170,255.3727,245.648,267.1415,255.8519,255.6123,0.1463,,0.8422,0.5307,2.5685,,1.6536,,24.9687,,24.9653,,,,,,,,,,,13.6376,13.6370,0.1216,298.848,94.195,95.372,,,,,,,,,,,,
CalCOFI,2105SH,012,,2105_012d,06-May-2021 14:20:11,06-May-2021 06:20:11,30.84636,-121.58884,093.3 090.0,093.3,090.0,40.000,40.281,,13.4644,,13.4614,,13.4629,33.3516,,33.3528,33.3417,,33.3436,33.3482,5.5572,,5.8778,5.8667,5.6265,,5.8873,5.8752,5.8710,242.127,255.6184,254.8696,245.149,266.6263,255.3305,255.1001,0.1371,,0.7781,0.4883,2.5617,,1.6536,,25.0242,,25.0172,,,,,,,,,,,13.4588,13.4558,0.1246,293.575,93.686,94.843,,,,,,,,,,,,
CalCOFI,2105SH,012,,2105_012d,06-May-2021 14:20:13,06-May-2021 06:20:13,30.84636,-121.58884,093.3 090.0,093.3,090.0,41.000,41.288,,13.4149,,13.4146,,13.4148,33.3587,,33.3599,33.3548,,33.3567,33.3583,5.5572,,5.8778,5.8667,5.6102,,5.8704,5.8582,5.8625,242.122,255.6131,254.8643,244.433,266.6209,254.5823,254.7233,0.1353,,0.7655,0.4800,2.5518,,1.6536,,25.0398,,25.0368,,,,,,,,,,,13.4093,13.4090,0.1276,292.118,93.595,94.485,,,,,,,,,,,,
CalCOFI,2105SH,012,,2105_012d,06-May-2021 14:20:15,06-May-2021 06:20:15,30.84636,-121.58885,093.3 090.0,093.3,090.0,42.000,42.295,,13.3874,,13.3895,,13.3885,33.3691,,33.3703,33.3650,,33.3669,33.3686,5.5135,,5.8321,5.8208,5.5731,,5.8320,5.8197,5.8203,240.215,253.6196,252.8527,242.814,264.5614,252.8905,252.8716,0.1238,,0.6846,0.4269,2.5350,,1.6536,,25.0534,,25.0498,,,,,,,,,,,13.3816,13.3837,0.1305,290.848,92.812,93.818,,,,,,,,,,,,
CalCOFI,2105SH,012,,2105_012d,06-May-2021 14:20:17,06-May-2021 06:20:17,30.84636,-121.58884,093.3 090.0,093.3,090.0,43.000,43.302,,13.3167,,13.3146,,13.3157,33.3708,,33.3720,33.3641,,33.3660,33.3690,5.3965,,5.7098,5.6977,5.4274,,5.6811,5.6683,5.6830,235.115,248.2880,247.4730,236.461,259.0534,246.2519,246.8625,0.1188,,0.6492,0.4039,2.5084,,1.6536,,25.0690,,25.0642,,,,,,,,,,,13.3108,13.3087,0.1334,289.391,90.713,91.224,,,,,,,,,,,,
CalCOFI,2105SH,012,,2105_012d,06-May-2021 14:20:20,06-May-2021 06:20:20,30.84636,-121.58884,093.3 090.0,093.3,090.0,44.000,44.309,,12.9589,,12.9753,,12.9671,33.3326,,33.3338,33.2984,,33.3003,33.3171,5.3470,,5.6580,5.6457,5.3737,,5.6255,5.6125,5.6291,232.949,246.0237,245.1882,234.120,256.7141,243.8056,244.4969,0.1100,,0.5867,0.3633,2.4833,,1.6536,,25.1102,,25.0805,,,,,,,,,,,12.9529,12.9693,0.1363,285.461,89.197,89.654,,,,,,,,,,,,
CalCOFI,2105SH,012,,2105_012d,06-May-2021 14:20:21,06-May-2021 06:20:21,30.84636,-121.58884,093.3 090.0,093.3,090.0,45.000,45.316,,12.4651,,12.4675,,12.4663,33.2450,,33.2462,33.2280,,33.2299,33.2381,5.3745,,5.6868,5.6746,5.4080,,5.6610,5.6481,5.6614,234.137,247.2656,246.4414,235.603,257.9971,245.3553,245.8984,0.0903,,0.4454,0.2725,2.4652,,1.6536,,25.1389,,25.1253,,,,,,,,,,,12.4592,12.4616,0.1392,282.715,88.694,89.243,,,,,,,,,,,,
CalCOFI,2105SH,012,,2105_012d,06-May-2021 14:20:23,06-May-2021 06:20:23,30.84636,-121.58884,093.3 090.0,093.3,090.0,46.000,46.324,,12.3799,,12.3794,,12.3797,33.2248,,33.2260,33.2135,,33.2154,33.2207,5.3467,,5.6577,5.6453,5.3851,,5.6373,5.6243,5.6348,232.928,246.0017,245.1660,234.601,256.6914,244.3083,244.7372,0.0854,,0.4099,0.2500,2.4457,,1.6536,,25.1396,,25.1310,,,,,,,,,,,12.3739,12.3734,0.1420,282.664,88.068,88.693,,,,,,,,,,,,
CalCOFI,2105SH,012,,2105_012d,06-May-2021 14:20:24,06-May-2021 06:20:24,30.84636,-121.58884,093.3 090.0,093.3,090.0,47.000,47.331,,12.3224,,12.3226,,12.3225,33.2190,,33.2202,33.2106,,33.2125,33.2164,5.3189,,5.6286,5.6161,5.3705,,5.6222,5.6091,5.6126,231.714,244.7326,243.8855,233.964,255.3803,243.6426,243.7641,0.0836,,0.3969,0.2417,2.4246,,1.6536,,25.1462,,25.1396,,,,,,,,,,,12.3162,12.3164,0.1449,282.060,87.502,88.346,,,,,,,,,,,,
CalCOFI,2105SH,012,,2105_012d,06-May-2021 14:20:27,06-May-2021 06:20:27,30.84636,-121.58884,093.3 090.0,093.3,090.0,48.000,48.338,,12.2810,,12.2815,,12.2813,33.2250,,33.2262,33.2185,,33.2204,33.2233,5.2728,,5.5804,5.5676,5.3159,,5.5656,5.5524,5.5600,229.706,242.6335,241.7673,231.581,253.2116,241.1525,241.4599,0.0812,,0.3795,0.2306,2.4002,,1.6536,,25.1587,,25.1536,,,,,,,,,,,12.2748,12.2752,0.1477,280.891,86.673,87.377,,,,,,,,,,,,
CalCOFI,2105SH,012,,2105_012d,06-May-2021 14:20:28,06-May-2021 06:20:28,30.84636,-121.58883,093.3 090.0,093.3,090.0,49.000,49.345,,12.2419,,12.2417,,12.2418,33.2308,,33.2320,33.2241,,33.2260,33.2290,5.1864,,5.4900,5.4768,5.2148,,5.4609,5.4474,5.4621,225.938,238.6944,237.7927,227.175,249.1422,236.5484,237.1706,0.0782,,0.3577,0.2168,2.3779,,1.6536,,25.1707,,25.1655,,,,,,,,,,,12.2355,12.2354,0.1505,279.771,85.185,85.647,,,,,,,,,,,,
CalCOFI,2105SH,012,,2105_012d,06-May-2021 14:20:30,06-May-2021 06:20:30,30.84637,-121.58882,093.3 090.0,093.3,090.0,50.000,50.352,,12.1487,,12.1472,,12.1480,33.2307,,33.2319,33.2187,,33.2206,33.2263,5.1005,,5.4002,5.3864,5.1381,,5.3814,5.3677,5.3771,222.194,234.7804,233.8434,223.832,245.0986,233.0551,233.4493,0.0756,,0.3387,0.2048,2.3614,,1.6536,,25.1883,,25.1793,,,,,,,,,,,12.1422,12.1407,0.1533,278.115,83.612,84.219,,,,,,,,,,,,
CalCOFI,2105SH,012,,2105_012d,06-May-2021 14:20:32,06-May-2021 06:20:32,30.84637,-121.58882,093.3 090.0,093.3,090.0,51.000,51.359,,11.9623,,11.9624,,11.9624,33.2291,,33.2303,33.2192,,33.2211,33.2257,5.0813,,5.3801,5.3662,5.1267,,5.3696,5.3558,5.3610,221.348,233.8960,232.9509,223.326,244.1850,232.5263,232.7386,0.0759,,0.3409,0.2062,2.3422,,1.6536,,25.2222,,25.2145,,,,,,,,,,,11.9558,11.9559,0.1561,274.901,82.970,83.706,,,,,,,,,,,,
CalCOFI,2105SH,012,,2105_012d,06-May-2021 14:20:35,06-May-2021 06:20:35,30.84636,-121.58882,093.3 090.0,093.3,090.0,52.000,52.367,,11.8921,,11.8925,,11.8923,33.2415,,33.2427,33.2372,,33.2391,33.2409,5.0825,,5.3814,5.3675,5.1467,,5.3904,5.3766,5.3721,221.397,233.9472,233.0026,224.191,244.2379,233.4302,233.2164,0.0729,,0.3190,0.1923,2.3170,,1.6536,,25.2449,,25.2416,,,,,,,,,,,11.8855,11.8859,0.1589,272.753,82.874,83.918,52,11.862,,,230.65,0.212,0.141,8.14,0.125,0.00,0.82,5.86
CalCOFI,2105SH,012,,2105_012d,06-May-2021 14:20:36,06-May-2021 06:20:36,30.84638,-121.58882,093.3 090.0,093.3,090.0,53.000,53.374,,11.8816,,11.8817,,11.8817,33.2507,,33.2519,33.2466,,33.2485,33.2502,5.1249,,5.4257,5.4121,5.1986,,5.4441,5.4305,5.4213,223.243,235.8770,234.9499,226.451,246.2316,235.7918,235.3709,0.0711,,0.3059,0.1840,2.3085,,1.6536,,25.2541,,25.2509,,,,,,,,,,,11.8748,11.8749,0.1616,271.905,83.552,84.751,,,,,,,,,,,,
CalCOFI,2105SH,012,,2105_012d,06-May-2021 14:20:37,06-May-2021 06:20:37,30.84638,-121.58882,093.3 090.0,093.3,090.0,54.000,54.381,,11.8994,,11.9004,,11.8999,33.2826,,33.2838,33.2859,,33.2878,33.2858,5.1366,,5.4380,5.4244,5.2232,,5.4696,5.4561,5.4403,223.744,236.4008,235.4784,227.517,246.7726,236.9058,236.1921,0.0676,,0.2802,0.1679,2.3033,,1.6536,,25.2755,,25.2779,,,,,,,,,,,11.8925,11.8935,0.1644,269.896,83.790,85.206,,,,,,,,,,,,
CalCOFI,2105SH,012,,2105_012d,06-May-2021 14:20:39,06-May-2021 06:20:39,30.84638,-121.58882,093.3 090.0,093.3,090.0,55.000,55.388,,11.9831,,11.9769,,11.9800,33.3222,,33.3234,33.3214,,33.3233,33.3234,5.1687,,5.4715,5.4581,5.2511,,5.4985,5.4851,5.4716,225.141,237.8612,236.9520,228.728,248.2814,238.1712,237.5616,0.0631,,0.2472,0.1472,2.2985,,1.6536,,25.2906,,25.2912,,,,,,,,,,,11.9760,11.9698,0.1671,268.494,84.484,85.818,,,,,,,,,,,,
CalCOFI,2105SH,012,,2105_012d,06-May-2021 14:20:42,06-May-2021 06:20:42,30.84638,-121.58880,093.3 090.0,093.3,090.0,56.000,56.395,,12.1019,,12.1020,,12.1020,33.3616,,33.3628,33.3686,,33.3705,33.3667,5.2250,,5.5304,5.5174,5.2798,,5.5282,5.5149,5.5162,227.593,240.4245,239.5385,229.974,250.9296,239.4732,239.5059,0.0610,,0.2318,0.1375,2.2959,,1.6536,,25.2989,,25.3043,,,,,,,,,,,12.0947,12.0947,0.1698,267.750,85.638,86.539,,,,,,,,,,,,